Salem, IL

9:24 AM CDT on May 27, 2017 (GMT -0500)
Salem-Leckrone

Weather History for KSLO - May, 2014

Change the Weather History Date:

Monday, May 12, 2014

  Actual Average Record
Temperature  
Mean Temperature 78 °F -  
Max Temperature 83 °F 75 °F 88 °F (1985)
Min Temperature 73 °F 53 °F 32 °F (1960)
Cooling Degree Days 12    
Growing Degree Days 28 (Base 50)    
Moisture  
Dew Point 71 °F    
Average Humidity 81    
Maximum Humidity 88    
Minimum Humidity 72    
Precipitation  
Precipitation 0.00 in - - ()
Sea Level Pressure  
Sea Level Pressure 29.95 in    
Wind  
Wind Speed 11 mph (South)    
Max Wind Speed 17 mph    
Max Gust Speed 26 mph    
Visibility 10 miles    
Events Rain , Thunderstorm    
Averages and records for this station are not official NWS values.
T = Trace of Precipitation, MM = Missing Value Source: NWS Daily Summary

Daily Weather History Graph

Daily Weather History Graph

Search for Another Location

Airport or City:

Trip Planner

Search our weather history database for the weather conditions in past years. The results will help you decide how hot, cold, wet, or windy it might be!

Date:

Astronomy

May. 12, 2014 Rise Set
Actual Time 5:46 AM CDT 7:58 PM CDT
Civil Twilight 5:17 AM CDT 8:27 PM CDT
Nautical Twilight 4:40 AM CDT 9:04 PM CDT
Astronomical Twilight 4:01 AM CDT 9:44 PM CDT
Moon 5:57 PM CDT (5/12) 4:23 AM CDT (5/12)
Length of Visible Light 15h 10m
Length of Day
14h 11m
Waxing Gibbous, 95% of the Moon is Illuminated
May 12
Waxing Gibbous
May 14
Full
May 21
Last Quarter
May 28
New
Jun 5
First Quarter

Hourly Weather History & Observations

Time (CDT) Temp. Heat Index Dew Point Humidity Pressure Visibility Wind Dir Wind Speed Gust Speed Precip Events Conditions
12:15 AM 76.3 °F - 71.2 °F 84% 29.95 in 10.0 mi SSE 6.9 mph - N/A   Scattered Clouds
12:35 AM 75.9 °F - 70.9 °F 84% 29.95 in 10.0 mi SSE 6.9 mph - N/A   Clear
12:55 AM 76.1 °F - 70.7 °F 83% 29.95 in 10.0 mi SSE 6.9 mph - N/A   Clear
1:15 AM 75.7 °F - 70.2 °F 83% 29.96 in 10.0 mi SSE 6.9 mph - N/A   Clear
1:35 AM 75.6 °F - 70.0 °F 83% 29.95 in 10.0 mi SSE 6.9 mph - N/A   Clear
1:55 AM 75.6 °F - 69.4 °F 81% 29.94 in 10.0 mi South 8.1 mph - N/A   Clear
2:15 AM 75.6 °F - 69.1 °F 80% 29.93 in 10.0 mi South 10.4 mph - N/A   Clear
2:35 AM 75.9 °F - 68.9 °F 79% 29.93 in 10.0 mi South 11.5 mph 17.3 mph N/A   Clear
2:55 AM 76.1 °F - 68.9 °F 78% 29.92 in 10.0 mi South 12.7 mph 18.4 mph N/A   Clear
3:15 AM 75.7 °F - 68.9 °F 79% 29.92 in 10.0 mi South 11.5 mph 20.7 mph N/A   Clear
3:35 AM 75.4 °F - 68.5 °F 79% 29.92 in 10.0 mi South 13.8 mph 19.6 mph N/A   Clear
3:55 AM 75.2 °F - 68.5 °F 80% 29.91 in 10.0 mi South 11.5 mph - N/A   Clear
4:15 AM 75.2 °F - 68.5 °F 80% 29.91 in 10.0 mi South 13.8 mph 18.4 mph N/A   Clear
4:35 AM 75.2 °F - 68.5 °F 80% 29.92 in 10.0 mi South 12.7 mph 18.4 mph N/A   Clear
4:55 AM 74.7 °F - 68.5 °F 81% 29.93 in 10.0 mi South 13.8 mph 18.4 mph N/A   Scattered Clouds
5:15 AM 74.7 °F - 68.5 °F 81% 29.93 in 10.0 mi South 15.0 mph 19.6 mph N/A   Clear
5:35 AM 74.3 °F - 68.5 °F 82% 29.92 in 10.0 mi South 16.1 mph 19.6 mph N/A   Clear
5:55 AM 74.3 °F - 68.9 °F 83% 29.93 in 10.0 mi South 12.7 mph 17.3 mph N/A   Clear
6:15 AM 73.9 °F - 68.9 °F 84% 29.95 in 10.0 mi South 13.8 mph - N/A   Clear
6:35 AM 73.9 °F - 68.9 °F 84% 29.96 in 10.0 mi South 13.8 mph 18.4 mph N/A   Clear
6:55 AM 74.1 °F - 69.3 °F 85% 29.97 in 10.0 mi South 15.0 mph 19.6 mph N/A   Mostly Cloudy
7:15 AM 74.5 °F - 69.4 °F 84% 29.97 in 10.0 mi South 10.4 mph 18.4 mph N/A   Mostly Cloudy
7:35 AM 74.7 °F - 69.8 °F 85% 29.98 in 10.0 mi South 12.7 mph 18.4 mph N/A   Scattered Clouds
7:55 AM 75.2 °F - 69.8 °F 83% 29.98 in 10.0 mi SSW 15.0 mph 19.6 mph N/A   Scattered Clouds
8:15 AM 75.2 °F - 70.0 °F 84% 29.99 in 10.0 mi SSW 11.5 mph 19.6 mph N/A   Mostly Cloudy
8:35 AM 75.7 °F - 70.0 °F 82% 29.98 in 10.0 mi South 11.5 mph - N/A   Overcast
8:55 AM 76.1 °F - 70.3 °F 82% 29.98 in 10.0 mi South 12.7 mph 19.6 mph N/A   Mostly Cloudy
9:15 AM 76.5 °F - 70.5 °F 82% 29.98 in 10.0 mi SSW 16.1 mph 23.0 mph N/A   Mostly Cloudy
9:35 AM 77.2 °F - 70.9 °F 81% 29.98 in 10.0 mi SSW 15.0 mph 20.7 mph N/A   Overcast
9:55 AM 76.5 °F - 70.5 °F 82% 30.00 in 10.0 mi SSW 16.1 mph 26.5 mph N/A   Overcast
10:15 AM 76.8 °F - 71.1 °F 82% 30.01 in 10.0 mi SSW 11.5 mph - N/A   Overcast
10:35 AM 78.4 °F - 71.6 °F 79% 30.01 in 10.0 mi SSW 16.1 mph 23.0 mph N/A   Overcast
10:55 AM 76.8 °F - 70.9 °F 82% 30.01 in 10.0 mi SSW 12.7 mph 23.0 mph N/A   Overcast
11:15 AM 78.3 °F - 72.0 °F 81% 30.01 in 10.0 mi South 16.1 mph 20.7 mph N/A   Mostly Cloudy
11:35 AM 80.1 °F 84.1 °F 72.7 °F 78% 30.01 in 10.0 mi South 11.5 mph 23.0 mph N/A   Mostly Cloudy
11:55 AM 80.1 °F 84.1 °F 72.5 °F 78% 30.00 in 10.0 mi South 11.5 mph 25.3 mph N/A   Mostly Cloudy
12:15 PM 80.6 °F 84.9 °F 72.5 °F 76% 29.99 in 10.0 mi South 15.0 mph 21.9 mph N/A Thunderstorm Scattered Clouds
12:35 PM 79.0 °F - 72.0 °F 79% 30.00 in 10.0 mi South 17.3 mph 24.2 mph N/A Thunderstorm Mostly Cloudy
12:55 PM 77.5 °F - 71.8 °F 82% 29.99 in 10.0 mi South 12.7 mph 19.6 mph N/A   Mostly Cloudy
1:15 PM 78.1 °F - 72.7 °F 83% 29.98 in 10.0 mi South 10.4 mph 17.3 mph N/A   Scattered Clouds
1:35 PM 78.6 °F - 73.0 °F 83% 29.98 in 10.0 mi South 11.5 mph - N/A   Scattered Clouds
1:55 PM 79.7 °F - 73.6 °F 81% 29.96 in 10.0 mi South 15.0 mph 23.0 mph N/A   Mostly Cloudy
2:15 PM 81.9 °F 87.7 °F 73.9 °F 77% 29.95 in 10.0 mi South 15.0 mph 24.2 mph N/A   Scattered Clouds
2:35 PM 81.7 °F 86.9 °F 73.0 °F 75% 29.95 in 10.0 mi SSW 15.0 mph 21.9 mph N/A   Scattered Clouds
2:55 PM 81.5 °F 86.5 °F 72.9 °F 75% 29.95 in 10.0 mi South 13.8 mph - N/A   Mostly Cloudy
3:15 PM 81.9 °F 87.3 °F 73.2 °F 75% 29.93 in 10.0 mi South 17.3 mph 23.0 mph N/A   Mostly Cloudy
3:35 PM 82.2 °F 87.3 °F 72.5 °F 72% 29.93 in 10.0 mi South 13.8 mph 20.7 mph N/A   Mostly Cloudy
3:55 PM 82.2 °F 87.3 °F 72.5 °F 72% 29.93 in 10.0 mi South 16.1 mph 19.6 mph N/A   Mostly Cloudy
4:15 PM 82.0 °F 87.2 °F 72.7 °F 73% 29.93 in 10.0 mi South 12.7 mph 21.9 mph N/A   Mostly Cloudy
4:35 PM 82.2 °F 88.0 °F 73.4 °F 75% 29.93 in 10.0 mi South 15.0 mph 21.9 mph N/A   Scattered Clouds
4:55 PM 80.8 °F 85.1 °F 72.1 °F 75% 29.95 in 10.0 mi South 17.3 mph 21.9 mph N/A Thunderstorm Scattered Clouds
5:15 PM 77.9 °F - 73.6 °F 86% 29.95 in 7.0 mi SSE 9.2 mph - N/A Rain , Thunderstorm Thunderstorms and Rain
5:35 PM 77.5 °F - 73.6 °F 88% 29.94 in 10.0 mi South 9.2 mph - N/A   Scattered Clouds
5:55 PM 77.9 °F - 72.5 °F 83% 29.93 in 10.0 mi South 12.7 mph 18.4 mph N/A   Clear
6:15 PM 78.1 °F - 72.5 °F 83% 29.93 in 10.0 mi South 10.4 mph 17.3 mph N/A   Clear
6:35 PM 77.9 °F - 72.1 °F 82% 29.93 in 10.0 mi South 10.4 mph 17.3 mph N/A   Scattered Clouds
6:55 PM 77.9 °F - 71.8 °F 81% 29.91 in 10.0 mi SSE 8.1 mph - N/A   Clear
7:15 PM 77.9 °F - 71.6 °F 81% 29.90 in 10.0 mi SSE 8.1 mph - N/A   Clear
7:35 PM 77.2 °F - 70.7 °F 80% 29.89 in 10.0 mi SSE 11.5 mph 17.3 mph N/A   Clear
7:55 PM 77.0 °F - 70.9 °F 81% 29.89 in 10.0 mi SSE 10.4 mph 17.3 mph N/A   Clear
8:15 PM 76.1 °F - 70.7 °F 83% 29.90 in 10.0 mi SSE 11.5 mph 16.1 mph N/A   Clear
8:35 PM 75.7 °F - 70.3 °F 83% 29.91 in 10.0 mi SSE 9.2 mph 21.9 mph N/A   Clear
8:55 PM 75.4 °F - 70.3 °F 84% 29.94 in 10.0 mi SSE 8.1 mph - N/A   Clear
9:15 PM 75.7 °F - 70.3 °F 83% 29.95 in 10.0 mi SSE 6.9 mph - N/A   Clear
9:35 PM 75.2 °F - 70.3 °F 85% 29.95 in 10.0 mi SSE 5.8 mph - N/A   Clear
9:55 PM 75.4 °F - 69.8 °F 83% 29.94 in 10.0 mi SSE 5.8 mph - N/A   Scattered Clouds
10:15 PM 75.4 °F - 69.4 °F 82% 29.95 in 10.0 mi South 5.8 mph - N/A   Mostly Cloudy
10:35 PM 75.2 °F - 69.4 °F 82% 29.96 in 10.0 mi Calm Calm - N/A   Overcast
10:55 PM 74.5 °F - 69.4 °F 84% 29.95 in 10.0 mi South 3.5 mph - N/A   Mostly Cloudy
11:15 PM 74.3 °F - 69.6 °F 85% 29.95 in 10.0 mi South 3.5 mph - N/A   Mostly Cloudy
11:35 PM 74.3 °F - 69.4 °F 85% 29.95 in 10.0 mi South 4.6 mph - N/A   Mostly Cloudy
11:55 PM 74.3 °F - 69.4 °F 85% 29.93 in 10.0 mi SSE 3.5 mph - N/A   Mostly Cloudy